This demonstration page uses our WeatherBlox Daily Observations layout. Learn more.

41.55636, -103.73856

Hourly Observations for May 4, 2018

Temp ( °F °C ) Dew Point ( °F °C ) Humidity (%) Winds ( mph kmh ) Pressure ( in mb ) Visibility ( mi km ) Precip ( " mm )
12:53 am 00:53 Clear 44 6.7 43 6.1 96 96 NW 8 13 30.12 1020 10 16.09344 0 0
1:53 am 01:53 Clear 42 5.6 42 5.6 100 100 NW 7 11 30.12 1020 10 16.09344 0 0
2:53 am 02:53 Clear 42 5.6 42 5.6 100 100 NW 7 11 30.15 1021 10 16.09344 0 0
3:53 am 03:53 Clear 42 5.6 41 5 96 96 NW 8 13 30.18 1022 10 16.09344 0 0
4:53 am 04:53 Clear 40 4.4 39 3.9 97 97 NW 8 13 30.18 1022 10 16.09344 0 0
5:53 am 05:53 Sunny 40 4.4 39 3.9 97 97 NW 9 15 30.21 1023 10 16.09344 0 0
6:53 am 06:53 Sunny 42 5.6 40 4.4 92 92 NW 8 13 30.21 1023 10 16.09344 0 0
7:53 am 07:53 Sunny 48 8.9 43 6.1 83 83 WNW 7 11 30.21 1023 10 16.09344 0 0
8:53 am 08:53 Sunny 53 11.7 46 7.8 77 77 WNW 8 13 30.21 1023 10 16.09344 0 0
9:53 am 09:53 Sunny 59 15 46 7.8 62 62 WNW 9 15 30.21 1023 10 16.09344 0 0
10:53 am 10:53 Sunny 64 17.8 47 8.3 54 54 WNW 9 15 30.18 1022 10 16.09344 0 0
11:53 am 11:53 Sunny 68 20 42 5.6 39 39 WNW 9 15 30.15 1021 10 16.09344 0 0
12:53 pm 12:53 Sunny 69 20.6 38 3.3 32 32 W 6 9 30.15 1021 10 16.09344 0 0
1:53 pm 13:53 Sunny 71 21.7 38 3.3 30 30 W 13 20 30.15 1021 10 16.09344 0 0
2:53 pm 14:53 Sunny 71 21.7 38 3.3 30 30 WSW 8 13 30.12 1020 10 16.09344 0 0
3:53 pm 15:53 Sunny 73 22.8 39 3.9 29 29 undefined N/A 30.09 1019 10 16.09344 0 0
4:53 pm 16:53 Sunny 73 22.8 38 3.3 28 28 W 6 9 30.09 1019 10 16.09344 0 0
5:53 pm 17:53 Sunny 72 22.2 37 2.8 28 28 S 5 7 30.09 1019 10 16.09344 0 0
6:53 pm 18:53 Sunny 70 21.1 41 5 35 35 SSE 6 9 30.06 1018 10 16.09344 0 0
7:53 pm 19:53 Sunny 63 17.2 43 6.1 48 48 SSE 8 13 30.06 1018 10 16.09344 0 0
8:53 pm 20:53 Clear 60 15.6 43 6.1 53 53 S 7 11 30.06 1018 10 16.09344 0 0
9:53 pm 21:53 Clear 59 15 42 5.6 54 54 S 6 9 30.06 1018 10 16.09344 0 0
10:53 pm 22:53 Clear 54 12.2 42 5.6 64 64 E 3 6 30.06 1018 10 16.09344 0 0
11:53 pm 23:53 Clear 53 11.7 42 5.6 66 66 E 10 17 30.03 1017 10 16.09344 0 0

Powered by AerisWeather